Weather in Pevek

Russia / Chukotka Autonomous Okrug     69°42′06″N   170°17′59″E
temp.,
°C
wind,
m/s
gust,
m/s
humid.,
%
clouds,
%
prec.,
mm/h
press.,
hPa
HPBL,
m
17 august, wed
wed1700:00+3ene33758 0.0 101513
03:00+3ese337068 0.0 101513
06:00+4ese337179 0.0 101414
09:00+5se247327 0.0 101483
12:00+4s13745 0.0 101456
15:00+4ne22740 0.0 101242
18:00+4nne33740 0.0 101231
21:00+3ne33764 0.0 101114
18 august, thu
thu1800:00+4ene33733 0.0 101111
03:00+4e33700 0.0 101111
06:00+3ese11720 0.0 101111
09:00+4nnw11700 0.0 101163
12:00+3nnw22764 0.0 101055
15:00+3n34760 0.0 101067
18:00+4nne23740 0.0 101041
21:00+3ne22780 0.0 101115
19 august, fri
fri1900:00+3ene33780 0.0 101117
03:00+2ene00800 0.0 101210
06:00+2nne00800 0.0 101310
09:00+3wnw11760 0.0 101340
12:00+3nnw21780 0.0 101357
15:00+4nne33730 0.0 101352
18:00+4nne33740 0.0 101326
21:00+4ne22750 0.0 101310
20 august, sat
sat2000:00+5ene22720 0.0 101310
03:00+4ne00730 0.0 101310
06:00+3sse00752 0.0 101310
09:00+4sw11725 0.0 101440
12:00+5ene12725 0.0 1014110
15:00+6nne227055 0.0 1013112
18:00+6ne447093 0.0 101335
21:00+6ne33705 0.0 101412
21 august, sun
sun2100:00+6ene337090 0.0 101411
03:00+5ene11745 0.0 101510
06:00+4n01785 0.0 101610
09:00+4nnw11785 0.0 101745
12:00+4n22793 0.0 101752
15:00+5nne33763 0.0 101758
18:00+5nne33763 0.0 101732
21:00+6ne33725 0.0 101810